Weather History for KCVX - November, 2011

Change the Weather History Date:

Thursday, November 3, 2011

  Actual Average Record
Temperature  
Mean Temperature 44 °F -  
Max Temperature 46 °F 50 °F 60 °F (2005)
Min Temperature 41 °F 38 °F 32 °F (2002)
Degree Days  
Heating Degree Days 22    
Moisture  
Dew Point 35 °F    
Average Humidity 71    
Maximum Humidity 93    
Minimum Humidity 57    
Precipitation  
Precipitation 0.00 in - - ()
Sea Level Pressure  
Sea Level Pressure 30.16 in    
Wind  
Wind Speed 8 mph (North)    
Max Wind Speed 16 mph    
Max Gust Speed 23 mph    
Visibility 10 miles    
Events      
Averages and records for this station are not official NWS values.
T = Trace of Precipitation, MM = Missing Value Source: NWS Daily Summary

Daily Weather History Graph

Daily Weather History Graph

Search for Another Location

Airport or City:

Trip Planner

Search our weather history database for the weather conditions in past years. The results will help you decide how hot, cold, wet, or windy it might be!

Date:

Astronomy

Nov. 03, 2011 Rise Set
Actual Time 8:22 AM EDT 6:26 PM EDT
Civil Twilight 7:51 AM EDT 6:56 PM EDT
Nautical Twilight 7:16 AM EDT 7:31 PM EDT
Astronomical Twilight 6:42 AM EDT 8:06 PM EDT
Moon 3:06 PM EDT (11/3) 1:15 AM EDT (11/3)
Length of Visible Light 11h 05m
Length of Day
10h 03m
First Quarter, 60% of the Moon is Illuminated
Nov 3
First Quarter
Nov 10
Full
Nov 18
Last Quarter
Nov 25
New
Dec 2
First Quarter

Hourly Weather History & Observations

Time (EDT) Temp. Windchill Dew Point Humidity Pressure Visibility Wind Dir Wind Speed Gust Speed Precip Events Conditions
12:15 AM 41.0 °F 37.1 °F 39.2 °F 93% 30.08 in 10.0 mi NE 5.8 mph - N/A   Light Drizzle
12:34 AM 41.0 °F 39.0 °F 39.2 °F 93% 30.10 in 10.0 mi NE 3.5 mph - N/A   Scattered Clouds
12:54 AM 41.0 °F - 39.2 °F 93% 30.11 in 10.0 mi Calm Calm - N/A   Mostly Cloudy
1:15 AM 41.0 °F - 39.2 °F 93% 30.10 in 10.0 mi Calm Calm - N/A   Overcast
1:54 AM 41.0 °F 38.0 °F 39.2 °F 93% 30.11 in 10.0 mi North 4.6 mph - N/A   Overcast
2:15 AM 44.6 °F 38.1 °F 39.2 °F 81% 30.10 in 10.0 mi North 13.8 mph - N/A   Mostly Cloudy
2:34 AM 44.6 °F 39.2 °F 39.2 °F 81% 30.10 in 10.0 mi North 10.4 mph - N/A   Mostly Cloudy
2:54 AM 44.6 °F 37.8 °F 39.2 °F 81% 30.10 in 10.0 mi North 15.0 mph 18.4 mph N/A   Overcast
3:14 AM 44.6 °F 37.8 °F 39.2 °F 81% 30.10 in 10.0 mi North 15.0 mph 20.7 mph N/A   Overcast
3:34 AM 44.6 °F 38.1 °F 39.2 °F 81% 30.11 in 10.0 mi North 13.8 mph 19.6 mph N/A   Overcast
3:55 AM 44.6 °F 38.8 °F 39.2 °F 81% 30.12 in 10.0 mi North 11.5 mph 19.6 mph N/A   Mostly Cloudy
4:15 AM 44.6 °F 38.4 °F 39.2 °F 81% 30.12 in 10.0 mi North 12.7 mph 21.9 mph N/A   Mostly Cloudy
4:34 AM 44.6 °F 38.4 °F 39.2 °F 81% 30.12 in 10.0 mi North 12.7 mph 19.6 mph N/A   Mostly Cloudy
5:14 AM 44.6 °F 38.8 °F 39.2 °F 81% 30.12 in 10.0 mi North 11.5 mph 18.4 mph N/A   Mostly Cloudy
5:34 AM 44.6 °F 37.4 °F 35.6 °F 71% 30.12 in 10.0 mi North 16.1 mph 23.0 mph N/A   Scattered Clouds
5:55 AM 44.6 °F 38.1 °F 35.6 °F 71% 30.13 in 10.0 mi North 13.8 mph 21.9 mph N/A   Clear
6:14 AM 44.6 °F 38.4 °F 35.6 °F 71% 30.14 in 10.0 mi North 12.7 mph 20.7 mph N/A   Scattered Clouds
6:35 AM 44.6 °F 38.1 °F 35.6 °F 71% 30.15 in 10.0 mi North 13.8 mph 19.6 mph N/A   Scattered Clouds
6:55 AM 44.6 °F 38.1 °F 33.8 °F 66% 30.15 in 10.0 mi NNE 13.8 mph 19.6 mph N/A   Clear
7:14 AM 44.6 °F 37.8 °F 32.0 °F 61% 30.16 in 10.0 mi NNE 15.0 mph 18.4 mph N/A   Clear
7:35 AM 44.6 °F 38.4 °F 32.0 °F 61% 30.14 in 10.0 mi NNE 12.7 mph 21.9 mph N/A   Clear
7:55 AM 42.8 °F 36.6 °F 32.0 °F 66% 30.14 in 10.0 mi NNE 11.5 mph 18.4 mph N/A   Clear
8:14 AM 42.8 °F 37.5 °F 32.0 °F 66% 30.16 in 10.0 mi NNE 9.2 mph 16.1 mph N/A   Clear
8:35 AM 42.8 °F 37.5 °F 32.0 °F 66% 30.18 in 10.0 mi NE 9.2 mph - N/A   Clear
8:54 AM 42.8 °F 39.3 °F 33.8 °F 70% 30.19 in 10.0 mi NNE 5.8 mph - N/A   Clear
9:14 AM 42.8 °F 38.6 °F 33.8 °F 70% 30.19 in 10.0 mi NE 6.9 mph - N/A   Clear
9:35 AM 42.8 °F 39.3 °F 33.8 °F 70% 30.19 in 10.0 mi NE 5.8 mph - N/A   Clear
9:54 AM 42.8 °F 38.6 °F 35.6 °F 76% 30.19 in 10.0 mi NE 6.9 mph - N/A   Clear
10:35 AM 44.6 °F 40.2 °F 33.8 °F 66% 30.19 in 10.0 mi NE 8.1 mph - N/A   Clear
10:54 AM 44.6 °F 39.2 °F 32.0 °F 61% 30.19 in 10.0 mi NNE 10.4 mph - N/A   Clear
11:14 AM 44.6 °F 39.7 °F 33.8 °F 66% 30.19 in 10.0 mi North 9.2 mph - N/A   Clear
11:35 AM 44.6 °F 39.7 °F 33.8 °F 66% 30.19 in 10.0 mi NNE 9.2 mph - N/A   Clear
11:54 AM 44.6 °F 40.2 °F 32.0 °F 61% 30.18 in 10.0 mi NE 8.1 mph - N/A   Clear
12:15 PM 46.4 °F 44.3 °F 32.0 °F 57% 30.18 in 10.0 mi NNE 4.6 mph - N/A   Clear
12:35 PM 46.4 °F 44.3 °F 32.0 °F 57% 30.18 in 10.0 mi NNE 4.6 mph - N/A   Scattered Clouds
12:54 PM 46.4 °F 42.4 °F 32.0 °F 57% 30.18 in 10.0 mi North 8.1 mph - N/A   Scattered Clouds
1:15 PM 46.4 °F 42.4 °F 33.8 °F 62% 30.17 in 10.0 mi North 8.1 mph - N/A   Clear
1:34 PM 46.4 °F 42.9 °F 33.8 °F 62% 30.17 in 10.0 mi North 6.9 mph - N/A   Scattered Clouds
1:55 PM 46.4 °F 42.9 °F 33.8 °F 62% 30.17 in 10.0 mi NW 6.9 mph - N/A   Scattered Clouds
2:15 PM 44.6 °F 39.7 °F 35.6 °F 71% 30.17 in 10.0 mi North 9.2 mph - N/A   Scattered Clouds
2:34 PM 44.6 °F 40.7 °F 35.6 °F 71% 30.16 in 10.0 mi NNW 6.9 mph - N/A   Clear
2:55 PM 44.6 °F 40.2 °F 35.6 °F 71% 30.16 in 10.0 mi North 8.1 mph - N/A   Clear
3:15 PM 46.4 °F 42.9 °F 35.6 °F 66% 30.17 in 10.0 mi NNW 6.9 mph - N/A   Clear
3:34 PM 44.6 °F 39.7 °F 33.8 °F 66% 30.17 in 10.0 mi NNW 9.2 mph - N/A   Clear
3:55 PM 44.6 °F 40.2 °F 33.8 °F 66% 30.17 in 10.0 mi NNW 8.1 mph - N/A   Clear
4:14 PM 44.6 °F 39.7 °F 33.8 °F 66% 30.17 in 10.0 mi North 9.2 mph - N/A   Clear
4:34 PM 44.6 °F 40.2 °F 33.8 °F 66% 30.17 in 10.0 mi North 8.1 mph - N/A   Clear
4:55 PM 44.6 °F 38.8 °F 33.8 °F 66% 30.17 in 10.0 mi North 11.5 mph - N/A   Clear
5:14 PM 44.6 °F 39.2 °F 32.0 °F 61% 30.17 in 10.0 mi North 10.4 mph - N/A   Clear
5:35 PM 44.6 °F 39.7 °F 33.8 °F 66% 30.17 in 10.0 mi North 9.2 mph - N/A   Clear
5:55 PM 44.6 °F 39.2 °F 32.0 °F 61% 30.18 in 10.0 mi North 10.4 mph - N/A   Clear
6:14 PM 42.8 °F 39.3 °F 32.0 °F 66% 30.19 in 10.0 mi North 5.8 mph - N/A   Clear
6:35 PM 41.0 °F 37.1 °F 32.0 °F 70% 30.20 in 10.0 mi North 5.8 mph - N/A   Clear
6:54 PM 41.0 °F 39.0 °F 32.0 °F 70% 30.20 in 10.0 mi North 3.5 mph - N/A   Clear
7:14 PM 41.0 °F 38.0 °F 32.0 °F 70% 30.20 in 10.0 mi North 4.6 mph - N/A   Clear
7:35 PM 41.0 °F 39.0 °F 33.8 °F 76% 30.20 in 10.0 mi NNW 3.5 mph - N/A   Clear
7:54 PM 41.0 °F 38.0 °F 33.8 °F 76% 30.21 in 10.0 mi North 4.6 mph - N/A   Clear
8:15 PM 41.0 °F 38.0 °F 32.0 °F 70% 30.21 in 10.0 mi North 4.6 mph - N/A   Clear
8:54 PM 42.8 °F 39.3 °F 32.0 °F 66% 30.22 in 10.0 mi North 5.8 mph - N/A   Clear
9:15 PM 42.8 °F 38.0 °F 32.0 °F 66% 30.22 in 10.0 mi North 8.1 mph - N/A   Clear
9:35 PM 42.8 °F 38.6 °F 33.8 °F 70% 30.23 in 10.0 mi NNW 6.9 mph - N/A   Clear
9:54 PM 42.8 °F 38.0 °F 32.0 °F 66% 30.23 in 10.0 mi NE 8.1 mph - N/A   Clear
10:15 PM 41.0 °F 38.0 °F 30.2 °F 65% 30.24 in 10.0 mi NE 4.6 mph - N/A   Clear
10:34 PM 41.0 °F 39.0 °F 30.2 °F 65% 30.24 in 10.0 mi ENE 3.5 mph - N/A   Clear
10:54 PM 39.2 °F 37.0 °F 32.0 °F 75% 30.24 in 10.0 mi East 3.5 mph - N/A   Clear
11:15 PM 35.6 °F - 30.2 °F 81% 30.24 in 10.0 mi Calm Calm - N/A   Clear
11:34 PM 32.0 °F - 30.2 °F 93% 30.25 in 10.0 mi Calm Calm - N/A   Clear
11:54 PM 32.0 °F - 30.2 °F 93% 30.25 in 10.0 mi Calm Calm - N/A   Clear